This demonstration page uses our WeatherBlox Daily Observations layout. Learn more.

Left ArrowRight Arrow

Hourly Observations for May 1, 2018

Temp ( °F °C ) Dew Point ( °F °C ) Humidity (%) Winds ( mph kmh ) Pressure ( in mb ) Visibility ( mi km ) Precip ( " mm )
12:53 am 00:53 Clear 41 5 35 1.7 79 79 N N/A 29.81 1009 10 16 N/A
1:53 am 01:53 Clear 38 3.3 34 1.1 86 86 WSW 3 6 29.80 1009 10 16 N/A
2:53 am 02:53 Clear 38 3.3 33 0.6 83 83 N N/A 29.79 1009 10 16 N/A
3:53 am 03:53 Clear 36 2.2 33 0.6 89 89 NE 3 6 29.78 1009 10 16 N/A
4:53 am 04:53 Clear 35 1.7 33 0.6 93 93 E 5 7 29.78 1009 10 16 N/A
5:53 am 05:53 Mostly Cloudy 35 1.7 34 1.1 96 96 E 5 7 29.78 1009 10 16 N/A
6:53 am 06:53 Mostly Cloudy 36 2.2 35 1.7 97 97 E 6 9 29.79 1009 10 16 N/A
7:53 am 07:53 Cloudy 42 5.6 37 2.8 82 82 E 5 7 29.79 1009 10 16 N/A
8:53 am 08:53 Cloudy 46 7.8 39 3.9 77 77 SW 5 7 29.79 1009 10 16 N/A
9:53 am 09:53 Cloudy 50 10 37 2.8 61 61 SW 21 33 29.79 1009 10 16 N/A
10:53 am 10:53 Mostly Cloudy 55 12.8 38 3.3 53 53 SW 17 28 29.78 1009 10 16 N/A
11:53 am 11:53 Mostly Cloudy 58 14.4 37 2.8 46 46 WSW 15 24 29.79 1009 10 16 N/A
12:53 pm 12:53 Partly Cloudy 58 14.4 37 2.8 46 46 WSW 9 15 29.79 1009 10 16 N/A
1:53 pm 13:53 Mostly Cloudy 61 16.1 36 2.2 39 39 SW 13 20 29.78 1009 10 16 N/A
2:53 pm 14:53 Mostly Cloudy 60 15.6 36 2.2 41 41 NNW 15 24 29.78 1009 10 16 N/A
3:00 pm 15:00 Cloudy 57 14 37 3 48 48 NW 16 26 29.71 1006 10 16 N/A
3:53 pm 15:53 Mostly Sunny 61 16.1 37 2.8 41 41 WNW 15 24 29.79 1009 10 16 N/A
4:53 pm 16:53 Mostly Sunny 60 15.6 39 3.9 46 46 WNW 23 37 29.80 1009 10 16 N/A
5:53 pm 17:53 Mostly Sunny 60 15.6 37 2.8 42 42 NW 15 24 29.81 1010 10 16 N/A
6:53 pm 18:53 Mostly Cloudy 59 15 40 4.4 49 49 NNW 20 31 29.83 1010 10 16 N/A
7:53 pm 19:53 Mostly Cloudy 56 13.3 39 3.9 53 53 NNW 16 26 29.86 1011 10 16 N/A
8:53 pm 20:53 Cloudy 52 11.1 39 3.9 61 61 NNE 7 11 29.89 1012 10 16 N/A
9:53 pm 21:53 Cloudy 52 11.1 40 4.4 64 64 N 5 7 29.89 1012 10 16 N/A
10:53 pm 22:53 Cloudy 51 10.6 39 3.9 64 64 N N/A 29.90 1013 10 16 N/A
11:53 pm 23:53 Cloudy 48 8.9 40 4.4 74 74 WSW 7 11 29.91 1013 10 16 N/A

Powered by AerisWeather